Starlink 36189

operational
NORAD ID: 67010 Int'l Des: 2025-293 Owner: SPXS Country: US Constellation: starlink
LEOCIRCULAR

关于 Starlink 36189

正在加载描述...

实时位置

正在加载3D地球...

即将过境

高度历史

Altitude vs Time

uPlot chart will show altitude changes over time

两行轨道根数

1 67010C 25293H 25346.10604167 -.00337930 00000+0 -47245-3 0 3467
2 67010 69.9974 325.9205 0004401 270.1607 209.2087 16.05955282 10
Epoch: Dec 12, 2025 • Age: 57 hours

当前状态

高度 268.4 km
速度 7.75 km/s
星下点 -21.12°S, 66.98°W
发射日期 Dec 10, 2025
运行时间 3 days
类型 internet

技术详情

分类 Payload
质量 575.00 kg
干质量 530.00 kg
总质量 575.00 kg
长度 0.30 m
直径 4.10 m
跨度 29.00 m
形状 Box + pan
制造商 SPXS
平台类型 Starlink V2MO
阶段状态 In Orbit
所有者/国家 SPXS/US

大型星座

Loading constellations...